When you browse on this site, cookies collect data to enhance your experience and personalize the content and advertising you see.
Visit our Privacy Policy to learn more. By continuing to use the site, you agree to this use of cookies and data.
  • En España
  • Lista de países
  • Para 7 días
  • Temperatura del agua
  • El tiempo en el mapa
  • Informadores
  • user-avatar
    Iniciar sesión

    Tiempo cada hora Bururi

    Hoy, 28 Febrero, Viernes

    Tiempo Temperatura Precipitaciones Viento Presión Humedad
    00:00 +18°C° 0.1 mm 1 mps 616 mmHg 92%
    01:00 +18°C° 0.1 mm 1 mps 616 mmHg 91%
    02:00 +18°C° 0 mm 1 mps 616 mmHg 90%
    03:00 +18°C° 0 mm 1 mps 616 mmHg 90%
    04:00 +16°C° 0 mm 0 mps 616 mmHg 90%
    05:00 +16°C° 0 mm 0 mps 615 mmHg 90%
    06:00 +18°C° 0.2 mm 1 mps 616 mmHg 89%
    07:00 +19°C° 0.2 mm 1 mps 617 mmHg 89%
    08:00 +19°C° 0.2 mm 1 mps 618 mmHg 89%
    09:00 +20°C° 0.7 mm 1 mps 618 mmHg 90%
    10:00 +20°C° 0.7 mm 1 mps 618 mmHg 90%
    11:00 +20°C° 0.7 mm 1 mps 618 mmHg 91%
    12:00 +20°C° 1.2 mm 1 mps 617 mmHg 92%
    13:00 +19°C° 1.2 mm 1 mps 617 mmHg 93%
    14:00 +18°C° 1.2 mm 2 mps 617 mmHg 94%
    15:00 +19°C° 0.9 mm 1 mps 616 mmHg 94%
    16:00 +19°C° 0.9 mm 1 mps 616 mmHg 95%
    17:00 +19°C° 0.9 mm 1 mps 616 mmHg 95%
    18:00 +18°C° 1.5 mm 1 mps 616 mmHg 95%
    19:00 +18°C° 1.5 mm 1 mps 617 mmHg 95%
    20:00 +18°C° 1.5 mm 1 mps 617 mmHg 95%
    21:00 +18°C° 0.6 mm 1 mps 617 mmHg 95%
    22:00 +16°C° 0.6 mm 1 mps 617 mmHg 95%
    23:00 +16°C° 0.6 mm 1 mps 617 mmHg 94%

    Mañana, 29 Febrero, Sábado

    Tiempo Temperatura Precipitaciones Viento Presión Humedad
    00:00 +16°C° 0.1 mm 1 mps 616 mmHg 94%
    01:00 +16°C° 0.1 mm 1 mps 616 mmHg 94%
    02:00 +16°C° 0.1 mm 1 mps 615 mmHg 94%
    03:00 +16°C° 0 mm 1 mps 615 mmHg 94%
    04:00 +16°C° 0 mm 1 mps 615 mmHg 93%
    05:00 +15°C° 0 mm 0 mps 615 mmHg 93%
    06:00 +15°C° 0 mm 0 mps 616 mmHg 92%
    07:00 +16°C° 0 mm 0 mps 617 mmHg 91%
    08:00 +17°C° 0 mm 0 mps 617 mmHg 91%
    09:00 +18°C° 0.1 mm 0 mps 618 mmHg 86%
    10:00 +21°C° 0.1 mm 1 mps 618 mmHg 82%
    11:00 +23°C° 0.1 mm 1 mps 618 mmHg 77%
    12:00 +23°C° 1.1 mm 1 mps 617 mmHg 78%
    13:00 +23°C° 1.1 mm 1 mps 617 mmHg 80%
    14:00 +24°C° 1.1 mm 1 mps 616 mmHg 81%
    15:00 +23°C° 1.2 mm 1 mps 616 mmHg 83%
    16:00 +23°C° 1.2 mm 1 mps 615 mmHg 84%
    17:00 +22°C° 1.2 mm 1 mps 615 mmHg 86%
    18:00 +21°C° 0.6 mm 1 mps 615 mmHg 87%
    19:00 +20°C° 0.6 mm 1 mps 615 mmHg 88%
    20:00 +19°C° 0.6 mm 1 mps 616 mmHg 89%
    21:00 +18°C° 0.4 mm 1 mps 616 mmHg 89%
    22:00 +18°C° 0.4 mm 1 mps 616 mmHg 89%
    23:00 +18°C° 0.4 mm 1 mps 616 mmHg 89%

    Pasado mañana, 1 Marzo, Domingo

    Tiempo Temperatura Precipitaciones Viento Presión Humedad
    00:00 +18°C° 0.6 mm 1 mps 616 mmHg 89%
    01:00 +18°C° 0.6 mm 1 mps 616 mmHg 89%
    02:00 +16°C° 0.6 mm 1 mps 615 mmHg 89%
    03:00 +16°C° 0.2 mm 1 mps 615 mmHg 89%
    04:00 +16°C° 0.2 mm 1 mps 615 mmHg 89%
    05:00 +16°C° 0.2 mm 1 mps 615 mmHg 88%
    06:00 +18°C° 0.2 mm 1 mps 616 mmHg 87%
    07:00 +17°C° 0.2 mm 0 mps 617 mmHg 86%
    08:00 +18°C° 0.2 mm 0 mps 618 mmHg 86%
    09:00 +19°C° 0.8 mm 0 mps 618 mmHg 84%
    10:00 +22°C° 0.8 mm 1 mps 618 mmHg 83%
    11:00 +23°C° 0.8 mm 1 mps 617 mmHg 82%
    12:00 +23°C° 1.2 mm 1 mps 617 mmHg 82%
    13:00 +23°C° 1.2 mm 1 mps 616 mmHg 82%
    14:00 +23°C° 1.2 mm 1 mps 616 mmHg 82%
    15:00 +22°C° 0.7 mm 1 mps 615 mmHg 84%
    16:00 +22°C° 0.7 mm 1 mps 615 mmHg 86%
    17:00 +21°C° 0.7 mm 1 mps 615 mmHg 88%
    18:00 +20°C° 0.1 mm 1 mps 615 mmHg 88%
    19:00 +19°C° 0.1 mm 1 mps 616 mmHg 88%
    20:00 +18°C° 0.1 mm 1 mps 616 mmHg 88%
    21:00 +18°C° 0.1 mm 1 mps 616 mmHg 89%
    22:00 +18°C° 0.1 mm 1 mps 616 mmHg 89%
    23:00 +18°C° 0.1 mm 1 mps 617 mmHg 89%

    2 Marzo, Lunes

    Tiempo Temperatura Precipitaciones Viento Presión Humedad
    00:00 +18°C° 0.3 mm 1 mps 616 mmHg 90%
    01:00 +18°C° 0.3 mm 1 mps 616 mmHg 91%
    02:00 +18°C° 0.3 mm 1 mps 616 mmHg 92%
    03:00 +18°C° 1 mm 1 mps 616 mmHg 93%
    04:00 +16°C° 1 mm 1 mps 616 mmHg 94%
    05:00 +16°C° 1 mm 1 mps 616 mmHg 95%
    06:00 +16°C° 1.6 mm 1 mps 616 mmHg 96%
    07:00 +18°C° 1.6 mm 1 mps 617 mmHg 96%
    08:00 +18°C° 1.6 mm 1 mps 618 mmHg 97%
    09:00 +18°C° 2.3 mm 1 mps 618 mmHg 96%
    10:00 +18°C° 2.3 mm 1 mps 618 mmHg 96%
    11:00 +17°C° 2.3 mm 2 mps 618 mmHg 96%
    12:00 +17°C° 3 mm 2 mps 617 mmHg 96%
    13:00 +17°C° 3 mm 2 mps 616 mmHg 96%
    14:00 +16°C° 3 mm 2 mps 616 mmHg 97%
    15:00 +16°C° 0.5 mm 2 mps 616 mmHg 96%
    16:00 +16°C° 0.5 mm 2 mps 616 mmHg 95%
    17:00 +16°C° 0.5 mm 2 mps 616 mmHg 93%
    18:00 +16°C° 0 mm 2 mps 616 mmHg 93%
    19:00 +16°C° 0 mm 2 mps 616 mmHg 92%
    20:00 +16°C° 0 mm 1 mps 617 mmHg 91%
    21:00 +16°C° 0 mm 1 mps 617 mmHg 89%
    22:00 +16°C° 0 mm 1 mps 617 mmHg 87%
    23:00 +16°C° 0 mm 1 mps 617 mmHg 86%

    3 Marzo, Martes

    Tiempo Temperatura Precipitaciones Viento Presión Humedad
    00:00 +16°C° 0 mm 1 mps 617 mmHg 85%
    01:00 +16°C° 0 mm 1 mps 617 mmHg 85%
    02:00 +15°C° 0 mm 0 mps 616 mmHg 84%
    03:00 +16°C° 0 mm 1 mps 616 mmHg 83%
    04:00 +16°C° 0 mm 1 mps 616 mmHg 81%
    05:00 +16°C° 0 mm 1 mps 616 mmHg 80%
    06:00 +16°C° 0 mm 0 mps 617 mmHg 80%
    07:00 +16°C° 0 mm 0 mps 617 mmHg 80%
    08:00 +16°C° 0 mm 0 mps 618 mmHg 80%
    09:00 +17°C° 0 mm 0 mps 618 mmHg 80%
    10:00 +18°C° 0 mm 0 mps 618 mmHg 79%
    11:00 +18°C° 0 mm 0 mps 619 mmHg 79%
    12:00 +19°C° 0.2 mm 0 mps 618 mmHg 78%
    13:00 +19°C° 0.2 mm 0 mps 618 mmHg 78%
    14:00 +22°C° 0.2 mm 1 mps 617 mmHg 77%
    15:00 +21°C° 0.3 mm 1 mps 617 mmHg 80%
    16:00 +19°C° 0.3 mm 0 mps 616 mmHg 82%
    17:00 +18°C° 0.3 mm 0 mps 616 mmHg 85%
    18:00 +18°C° 0 mm 0 mps 616 mmHg 84%
    19:00 +17°C° 0 mm 0 mps 617 mmHg 83%
    20:00 +16°C° 0 mm 0 mps 617 mmHg 82%
    21:00 +16°C° 0 mm 0 mps 617 mmHg 81%
    22:00 +18°C° 0 mm 1 mps 617 mmHg 81%
    23:00 +18°C° 0 mm 1 mps 617 mmHg 80%

    4 Marzo, Miércoles

    Tiempo Temperatura Precipitaciones Viento Presión Humedad
    00:00 +18°C° 0 mm 1 mps 617 mmHg 80%
    01:00 +18°C° 0 mm 1 mps 617 mmHg 80%
    02:00 +18°C° 0 mm 1 mps 617 mmHg 80%
    03:00 +18°C° 0 mm 1 mps 617 mmHg 80%
    04:00 +18°C° 0 mm 1 mps 617 mmHg 79%
    05:00 +18°C° 0 mm 1 mps 617 mmHg 79%
    06:00 +19°C° 0 mm 1 mps 617 mmHg 79%
    07:00 +19°C° 0 mm 1 mps 618 mmHg 79%
    08:00 +20°C° 0 mm 1 mps 619 mmHg 79%
    09:00 +21°C° 0.6 mm 1 mps 619 mmHg 77%
    10:00 +23°C° 0.6 mm 1 mps 619 mmHg 75%
    11:00 +24°C° 0.6 mm 2 mps 619 mmHg 73%
    12:00 +23°C° 1.5 mm 1 mps 619 mmHg 75%
    13:00 +23°C° 1.5 mm 1 mps 618 mmHg 78%
    14:00 +22°C° 1.5 mm 1 mps 617 mmHg 81%
    15:00 +22°C° 0.9 mm 1 mps 617 mmHg 82%
    16:00 +22°C° 0.9 mm 1 mps 616 mmHg 84%
    17:00 +22°C° 0.9 mm 1 mps 616 mmHg 85%
    18:00 +20°C° 0.1 mm 1 mps 616 mmHg 85%
    19:00 +19°C° 0.1 mm 1 mps 616 mmHg 85%
    20:00 +18°C° 0.1 mm 1 mps 616 mmHg 85%
    21:00 +18°C° 0 mm 1 mps 616 mmHg 83%
    22:00 +18°C° 0 mm 1 mps 617 mmHg 81%
    23:00 +18°C° 0 mm 1 mps 617 mmHg 79%
    Mostrar más